Time,TemperatureF,DewpointF,PressureIn,WindDirection,WindDirectionDegrees,WindSpeedMPH,WindSpeedGustMPH,Humidity,HourlyPrecipIn,Conditions,Clouds,dailyrainin,SoftwareType,DateUTC
2013-02-26 17:24:00,39.0,2.4,29.65,SE,131,3.1,3.1,21,0.00,,CLR,0.00,VWS V14.00,2013-02-26 22:24:00,
2013-02-26 17:25:00,39.0,2.4,29.65,ESE,103,4.0,4.0,21,0.00,,CLR,0.00,VWS V14.00,2013-02-26 22:25:00,
2013-02-26 17:30:00,38.8,2.3,29.65,East,95,3.6,6.7,21,0.00,,CLR,0.00,VWS V14.00,2013-02-26 22:30:00,
2013-02-26 17:35:00,38.8,2.3,29.65,NW,308,4.9,6.7,21,0.00,,OVC043,0.00,VWS V14.00,2013-02-26 22:35:00,
2013-02-26 17:40:00,38.8,2.3,29.65,NE,47,3.6,6.7,21,0.00,,OVC043,0.00,VWS V14.00,2013-02-26 22:40:00,
2013-02-26 17:45:00,38.7,2.1,29.65,NE,39,4.0,4.5,21,0.00,,OVC039,0.00,VWS V14.00,2013-02-26 22:45:00,
2013-02-26 17:50:00,38.7,2.1,29.65,ENE,77,4.9,4.9,21,0.00,,OVC039,0.00,VWS V14.00,2013-02-26 22:50:00,
2013-02-26 17:55:00,38.7,2.1,29.65,NNE,18,3.6,5.8,21,0.00,,OVC039,0.00,VWS V14.00,2013-02-26 22:55:00,
2013-02-26 18:00:00,38.7,2.1,29.65,ESE,111,3.1,5.8,21,0.00,,OVC039,0.00,VWS V14.00,2013-02-26 23:00:00,
2013-02-26 18:05:00,38.7,2.1,29.65,NW,325,2.2,4.0,21,0.00,,OVC037,0.00,VWS V14.00,2013-02-26 23:05:00,
2013-02-26 18:10:00,38.5,2.0,29.65,ENE,71,0.0,4.0,21,0.00,,OVC037,0.00,VWS V14.00,2013-02-26 23:10:00,
2013-02-26 18:15:00,38.5,2.0,29.65,NW,311,3.6,5.4,21,0.00,,OVC037,0.00,VWS V14.00,2013-02-26 23:15:00,
2013-02-26 18:20:00,38.5,2.0,29.65,North,357,4.0,5.8,21,0.00,,OVC037,0.00,VWS V14.00,2013-02-26 23:20:00,
2013-02-26 18:25:00,38.3,4.7,29.65,NNE,29,0.0,5.4,24,0.00,,OVC037,0.00,VWS V14.00,2013-02-26 23:25:00,
2013-02-26 18:30:00,38.1,4.5,29.65,NNW,339,0.0,5.4,24,0.00,,OVC037,0.00,VWS V14.00,2013-02-26 23:30:00,
2013-02-26 18:35:00,37.9,4.4,29.65,NNE,31,3.1,5.4,24,0.00,,OVC037,0.00,VWS V14.00,2013-02-26 23:35:00,
2013-02-26 18:40:00,37.8,6.0,29.65,SE,138,5.8,5.8,26,0.00,,OVC037,0.00,VWS V14.00,2013-02-26 23:40:00,
2013-02-26 18:45:00,37.6,5.8,29.65,North,353,2.2,3.6,26,0.00,,OVC037,0.00,VWS V14.00,2013-02-26 23:45:00,
2013-02-26 18:50:00,37.4,5.7,29.62,East,97,0.0,6.3,26,0.00,,OVC037,0.00,VWS V14.00,2013-02-26 23:50:00,
2013-02-26 18:55:00,37.4,5.7,29.62,NW,325,0.0,6.3,26,0.00,,OVC037,0.00,VWS V14.00,2013-02-26 23:55:00,
2013-02-26 19:00:00,37.4,5.7,29.62,SSE,157,3.6,6.3,26,0.00,,OVC037,0.00,VWS V14.00,2013-02-27 00:00:00,
2013-02-26 19:05:00,37.4,5.7,29.62,North,350,2.7,7.6,26,0.00,,OVC035,0.00,VWS V14.00,2013-02-27 00:05:00,
2013-02-26 19:10:00,37.4,5.7,29.62,SSE,149,3.1,7.6,26,0.00,,OVC035,0.00,VWS V14.00,2013-02-27 00:10:00,
2013-02-26 19:15:00,37.2,6.3,29.62,NNE,24,4.0,7.6,27,0.00,,OVC035,0.00,VWS V14.00,2013-02-27 00:15:00,
2013-02-26 19:20:00,37.2,6.3,29.62,SE,137,3.1,7.6,27,0.00,,OVC035,0.00,VWS V14.00,2013-02-27 00:20:00,
2013-02-26 19:25:00,37.2,6.3,29.62,NNW,332,3.1,4.0,27,0.00,,OVC035,0.00,VWS V14.00,2013-02-27 00:25:00,
2013-02-26 19:30:00,37.0,6.2,29.62,South,170,0.0,7.6,27,0.00,,OVC035,0.00,VWS V14.00,2013-02-27 00:30:00,
2013-02-26 19:35:00,37.0,3.6,29.62,North,357,4.0,8.1,24,0.00,,OVC035,0.00,VWS V14.00,2013-02-27 00:35:00,
2013-02-26 19:40:00,37.0,3.6,29.62,NE,54,2.7,8.3,24,0.00,,OVC035,0.00,VWS V14.00,2013-02-27 00:40:00,
2013-02-26 19:45:00,37.0,3.6,29.62,ENE,67,2.7,5.8,24,0.00,,OVC035,0.00,VWS V14.00,2013-02-27 00:45:00,
2013-02-26 19:50:00,36.9,3.5,29.59,SE,131,4.0,5.8,24,0.00,,OVC035,0.00,VWS V14.00,2013-02-27 00:50:00,
2013-02-26 19:55:00,36.9,3.5,29.59,North,5,5.4,5.8,24,0.00,,OVC035,0.00,VWS V14.00,2013-02-27 00:55:00,
2013-02-26 20:01:00,36.7,3.3,29.59,North,11,0.0,5.8,24,0.00,,OVC035,0.00,VWS V14.00,2013-02-27 01:01:00,
2013-02-26 20:06:00,36.7,3.3,29.59,ENE,67,0.0,5.4,24,0.00,,-RA,0.00,VWS V14.00,2013-02-27 01:06:00,
2013-02-26 20:11:00,36.5,3.2,29.59,North,353,2.7,6.7,24,0.00,,-RA,0.00,VWS V14.00,2013-02-27 01:11:00,
2013-02-26 20:16:00,36.3,3.0,29.59,North,0,3.1,8.1,24,0.00,,-RA,0.00,VWS V14.00,2013-02-27 01:16:00,
2013-02-26 20:21:00,36.3,3.0,29.59,NNE,23,3.6,8.1,24,0.00,,-RA,0.00,VWS V14.00,2013-02-27 01:21:00,
2013-02-26 20:26:00,36.1,2.8,29.59,North,6,4.0,5.4,24,0.00,,-RA,0.00,VWS V14.00,2013-02-27 01:26:00,
2013-02-26 20:31:00,36.0,2.7,29.59,WNW,302,5.8,5.8,24,0.00,,-RA,0.00,VWS V14.00,2013-02-27 01:31:00,
2013-02-26 20:36:00,35.8,5.1,29.59,ENE,74,0.0,9.2,27,0.00,,-RA,0.00,VWS V14.00,2013-02-27 01:36:00,
2013-02-26 20:41:00,35.6,6.5,29.59,NNW,343,3.6,9.2,29,0.00,,-RA,0.00,VWS V14.00,2013-02-27 01:41:00,
2013-02-26 20:46:00,35.4,7.1,29.59,NNE,21,2.7,6.3,30,0.00,,-RA,0.00,VWS V14.00,2013-02-27 01:46:00,
2013-02-26 20:51:00,35.4,7.1,29.56,NNE,24,4.0,6.3,30,0.00,,-RA,0.00,VWS V14.00,2013-02-27 01:51:00,
2013-02-26 20:56:00,35.2,6.9,29.56,North,350,2.7,6.3,30,0.00,,-RA,0.00,VWS V14.00,2013-02-27 01:56:00,
2013-02-26 21:01:00,35.1,7.5,29.56,East,91,5.4,6.3,31,0.00,,-RA,0.00,VWS V14.00,2013-02-27 02:01:00,
2013-02-26 21:06:00,35.1,8.2,29.56,NE,39,3.1,6.3,32,0.00,,-RA,0.00,VWS V14.00,2013-02-27 02:06:00,
2013-02-26 21:11:00,34.9,8.7,29.56,North,9,4.0,6.3,33,0.00,,-RA,0.00,VWS V14.00,2013-02-27 02:11:00,
2013-02-26 21:16:00,34.9,8.7,29.56,NE,47,4.0,7.2,33,0.00,,-RA,0.00,VWS V14.00,2013-02-27 02:16:00,
2013-02-26 21:21:00,34.7,9.2,29.53,NE,56,0.0,0.0,34,0.00,,-RA,0.00,VWS V14.00,2013-02-27 02:21:00,
2013-02-26 21:26:00,34.7,10.5,29.53,NNW,338,0.0,10.1,36,0.00,,-RA,0.00,VWS V14.00,2013-02-27 02:26:00,
2013-02-26 21:31:00,34.7,10.5,29.53,North,1,3.6,10.1,36,0.00,,-RA,0.00,VWS V14.00,2013-02-27 02:31:00,
2013-02-26 21:36:00,34.7,11.1,29.53,SSW,212,0.0,10.1,37,0.00,,-RA,0.00,VWS V14.00,2013-02-27 02:36:00,
2013-02-26 21:41:00,34.7,11.7,29.53,NW,308,0.0,2.7,38,0.00,,-RA,0.00,VWS V14.00,2013-02-27 02:41:00,
2013-02-26 21:46:00,34.7,11.7,29.53,North,0,4.9,5.4,38,0.00,,-RA,0.00,VWS V14.00,2013-02-27 02:46:00,
2013-02-26 21:51:00,34.7,12.3,29.53,North,1,2.2,5.4,39,0.00,,OVC032,0.00,VWS V14.00,2013-02-27 02:51:00,
2013-02-26 21:56:00,34.7,12.3,29.53,NNW,329,3.6,6.3,39,0.00,,OVC032,0.00,VWS V14.00,2013-02-27 02:56:00,
2013-02-26 22:01:00,34.7,12.9,29.53,NNW,342,2.7,4.0,40,0.00,,OVC032,0.00,VWS V14.00,2013-02-27 03:01:00,
2013-02-26 22:06:00,34.5,12.7,29.53,NW,312,2.7,5.8,40,0.00,,-RA,0.00,VWS V14.00,2013-02-27 03:06:00,
2013-02-26 22:11:00,34.5,13.3,29.53,SE,126,2.7,5.8,41,0.00,,-RA,0.00,VWS V14.00,2013-02-27 03:11:00,
2013-02-26 22:16:00,34.5,13.8,29.53,NE,42,3.1,5.8,42,0.00,,-RA,0.00,VWS V14.00,2013-02-27 03:16:00,
2013-02-26 22:21:00,34.5,14.3,29.53,NE,56,3.6,3.6,43,0.00,,-RA,0.00,VWS V14.00,2013-02-27 03:21:00,
2013-02-26 22:26:00,34.3,14.2,29.53,WNW,298,2.2,3.6,43,0.00,,-RA,0.00,VWS V14.00,2013-02-27 03:26:00,
2013-02-26 22:31:00,34.3,14.7,29.53,NNE,15,3.1,5.8,44,0.00,,-RA,0.04,VWS V14.00,2013-02-27 03:31:00,
2013-02-26 22:36:00,34.3,15.2,29.50,North,2,5.8,5.8,45,0.00,,-RA,0.04,VWS V14.00,2013-02-27 03:36:00,
2013-02-26 22:41:00,34.2,15.6,29.50,NNW,339,3.6,3.6,46,0.00,,-RA,0.04,VWS V14.00,2013-02-27 03:41:00,
2013-02-26 22:46:00,34.2,15.6,29.50,North,6,3.6,10.5,46,0.00,,-RA,0.04,VWS V14.00,2013-02-27 03:46:00,
2013-02-26 22:52:00,34.2,16.0,29.50,NNW,333,3.1,10.5,47,0.00,,-RA,0.04,VWS V14.00,2013-02-27 03:52:00,
2013-02-26 22:56:00,34.0,16.4,29.50,NNW,338,2.2,10.5,48,0.00,,-RA,0.04,VWS V14.00,2013-02-27 03:56:00,
2013-02-26 23:02:00,34.0,16.4,29.47,North,353,3.6,3.6,48,0.00,,-RA,0.04,VWS V14.00,2013-02-27 04:02:00,
2013-02-26 23:07:00,34.0,16.8,29.47,NW,314,0.0,6.3,49,0.00,,RA,0.04,VWS V14.00,2013-02-27 04:07:00,
2013-02-26 23:12:00,34.0,16.4,29.47,North,353,2.2,6.3,48,0.00,,RA,0.04,VWS V14.00,2013-02-27 04:12:00,
2013-02-26 23:17:00,34.2,17.0,29.44,North,11,3.1,7.6,49,0.04,,RA,0.08,VWS V14.00,2013-02-27 04:17:00,
2013-02-26 23:22:00,34.2,17.0,29.44,NNE,13,3.1,5.4,49,0.04,,RA,0.08,VWS V14.00,2013-02-27 04:22:00,
2013-02-26 23:27:00,34.2,17.0,29.44,NNW,348,3.6,5.8,49,0.04,,RA,0.08,VWS V14.00,2013-02-27 04:27:00,
2013-02-26 23:32:00,34.2,17.5,29.44,NW,321,5.8,6.3,50,0.04,,RA,0.08,VWS V14.00,2013-02-27 04:32:00,
2013-02-26 23:37:00,34.3,17.6,29.44,NNE,17,0.0,8.1,50,0.04,,RA,0.08,VWS V14.00,2013-02-27 04:37:00,
2013-02-26 23:42:00,34.3,17.6,29.44,East,95,2.7,4.0,50,0.04,,RA,0.08,VWS V14.00,2013-02-27 04:42:00,
2013-02-26 23:47:00,34.3,17.6,29.44,NNW,338,2.2,5.4,50,0.04,,RA,0.08,VWS V14.00,2013-02-27 04:47:00,
2013-02-26 23:52:00,34.3,17.6,29.44,North,353,0.0,10.1,50,0.04,,RA,0.08,VWS V14.00,2013-02-27 04:52:00,
2013-02-26 23:57:00,34.3,17.6,29.44,ESE,119,3.1,10.1,50,0.04,,RA,0.08,VWS V14.00,2013-02-27 04:57:00,